Weather History for KMFV - December, 2011

Change the Weather History Date:

Friday, December 2, 2011

  Actual Average (KWAL) Record (KWAL)
Temperature  
Mean Temperature 44 °F 44 °F  
Max Temperature 57 °F 53 °F 66 °F (1991)
Min Temperature 30 °F 36 °F 23 °F (1999)
Degree Days  
Heating Degree Days 22    
Month to date heating degree days  
Since 1 July heating degree days  
Cooling Degree Days 0    
Month to date cooling degree days  
Year to date cooling degree days  
Moisture  
Dew Point 33 °F    
Average Humidity 75    
Maximum Humidity 100    
Minimum Humidity 41    
Precipitation  
Precipitation 0.00 in 0.11 in 0.32 in (2007)
Month to date precipitation 0.22  
Year to date precipitation 37.63  
Sea Level Pressure  
Sea Level Pressure 30.36 in    
Wind  
Wind Speed 2 mph (SW)    
Max Wind Speed 9 mph    
Max Gust Speed -    
Visibility 10 miles    
Events      
T = Trace of Precipitation, MM = Missing Value Source: NWS Daily Summary

Daily Weather History Graph

Daily Weather History Graph

Search for Another Location

Airport or City:

Trip Planner

Search our weather history database for the weather conditions in past years. The results will help you decide how hot, cold, wet, or windy it might be!

Date:

Astronomy

Dec. 02, 2011 Rise Set
Actual Time 6:59 AM EST 4:44 PM EST
Civil Twilight 6:31 AM EST 5:13 PM EST
Nautical Twilight 5:58 AM EST 5:45 PM EST
Astronomical Twilight 5:27 AM EST 6:17 PM EST
Moon 12:15 PM EST (12/2) No Moon Set
Length of Visible Light 10h 42m
Length of Day
9h 44m
First Quarter, 53% of the Moon is Illuminated
Dec 2
First Quarter
Dec 10
Full
Dec 17
Last Quarter
Dec 24
New
Jan 1
First Quarter

Hourly Weather History & Observations

Time (EST) Temp. Windchill Dew Point Humidity Pressure Visibility Wind Dir Wind Speed Gust Speed Precip Events Conditions
12:15 AM 32.0 °F - 30.2 °F 93% 30.35 in 10.0 mi Calm Calm - N/A   Clear
12:35 AM 32.0 °F - 30.2 °F 93% 30.34 in 10.0 mi Calm Calm - N/A   Clear
12:55 AM 32.0 °F - 30.2 °F 93% 30.34 in 10.0 mi Calm Calm - N/A   Clear
1:15 AM 32.0 °F - 30.2 °F 93% 30.34 in 10.0 mi Calm Calm - N/A   Clear
1:35 AM 32.0 °F - 30.2 °F 93% 30.34 in 10.0 mi Calm Calm - N/A   Clear
1:55 AM 32.0 °F - 30.2 °F 93% 30.34 in 10.0 mi Calm Calm - N/A   Clear
2:15 AM 32.0 °F - 30.2 °F 93% 30.34 in 10.0 mi Calm Calm - N/A   Clear
2:35 AM 30.2 °F - 30.2 °F 100% 30.34 in 10.0 mi Calm Calm - N/A   Clear
2:55 AM 30.2 °F - 30.2 °F 100% 30.34 in 10.0 mi Calm Calm - N/A   Clear
3:15 AM 30.2 °F - 30.2 °F 100% 30.34 in 10.0 mi Calm Calm - N/A   Clear
3:35 AM 30.2 °F - 30.2 °F 100% 30.34 in 10.0 mi Calm Calm - N/A   Clear
3:55 AM 30.2 °F - 30.2 °F 100% 30.34 in 10.0 mi Calm Calm - N/A   Clear
4:15 AM 30.2 °F - 30.2 °F 100% 30.35 in 10.0 mi Calm Calm - N/A   Clear
4:35 AM 30.2 °F - 30.2 °F 100% 30.34 in 7.0 mi Calm Calm - N/A   Clear
4:55 AM 30.2 °F - 28.4 °F 93% 30.34 in 7.0 mi Calm Calm - N/A   Clear
5:15 AM 30.2 °F - 28.4 °F 93% 30.34 in 7.0 mi Calm Calm - N/A   Clear
5:35 AM 30.2 °F - 28.4 °F 93% 30.34 in 10.0 mi Calm Calm - N/A   Clear
5:55 AM 30.2 °F - 28.4 °F 93% 30.35 in 10.0 mi Calm Calm - N/A   Clear
6:15 AM 30.2 °F - 28.4 °F 93% 30.35 in 10.0 mi Calm Calm - N/A   Clear
6:35 AM 30.2 °F - 28.4 °F 93% 30.36 in 10.0 mi Calm Calm - N/A   Clear
6:55 AM 30.2 °F - 28.4 °F 93% 30.36 in 10.0 mi Calm Calm - N/A   Clear
7:15 AM 30.2 °F - 28.4 °F 93% 30.37 in 7.0 mi Calm Calm - N/A   Clear
7:35 AM 30.2 °F - 28.4 °F 93% 30.37 in 10.0 mi Calm Calm - N/A   Clear
7:55 AM 30.2 °F - 30.2 °F 100% 30.38 in 10.0 mi Calm Calm - N/A   Clear
8:15 AM 33.8 °F - 33.8 °F 100% 30.39 in 7.0 mi Calm Calm - N/A   Clear
8:35 AM 37.4 °F 34.9 °F 35.6 °F 93% 30.39 in 10.0 mi SW 3.5 mph - N/A   Clear
9:15 AM 46.4 °F - 37.4 °F 71% 30.39 in 10.0 mi Calm Calm - N/A   Clear
9:35 AM 50.0 °F - 37.4 °F 62% 30.40 in 10.0 mi SW 3.5 mph - N/A   Clear
9:55 AM 51.8 °F - 39.2 °F 62% 30.40 in 10.0 mi WSW 3.5 mph - N/A   Clear
10:15 AM 51.8 °F - 39.2 °F 62% 30.40 in 10.0 mi SW 5.8 mph - N/A   Clear
10:35 AM 53.6 °F - 39.2 °F 58% 30.39 in 10.0 mi WSW 3.5 mph - N/A   Clear
10:55 AM 53.6 °F - 39.2 °F 58% 30.39 in 10.0 mi SW 3.5 mph - N/A   Clear
11:15 AM 53.6 °F - 39.2 °F 58% 30.37 in 10.0 mi SSW 5.8 mph - N/A   Clear
11:35 AM 55.4 °F - 39.2 °F 54% 30.37 in 10.0 mi WSW 5.8 mph - N/A   Clear
11:55 AM 55.4 °F - 39.2 °F 54% 30.36 in 10.0 mi SSW 4.6 mph - N/A   Clear
12:15 PM 55.4 °F - 39.2 °F 54% 30.36 in 10.0 mi South 6.9 mph - N/A   Clear
12:35 PM 57.2 °F - 37.4 °F 48% 30.35 in 10.0 mi WSW 8.1 mph - N/A   Clear
12:55 PM 57.2 °F - 35.6 °F 44% 30.34 in 10.0 mi WSW 9.2 mph - N/A   Clear
1:15 PM 57.2 °F - 35.6 °F 44% 30.34 in 10.0 mi SW 8.1 mph - N/A   Clear
1:35 PM 57.2 °F - 33.8 °F 41% 30.34 in 10.0 mi WSW 8.1 mph - N/A   Clear
1:55 PM 57.2 °F - 33.8 °F 41% 30.33 in 10.0 mi WSW 8.1 mph - N/A   Clear
2:15 PM 57.2 °F - 35.6 °F 44% 30.34 in 10.0 mi SW 6.9 mph - N/A   Clear
2:35 PM 57.2 °F - 33.8 °F 41% 30.34 in 10.0 mi SSW 5.8 mph - N/A   Clear
2:55 PM 57.2 °F - 33.8 °F 41% 30.34 in 10.0 mi SSW 8.1 mph - N/A   Clear
3:15 PM 57.2 °F - 33.8 °F 41% 30.34 in 10.0 mi SSW 4.6 mph - N/A   Clear
3:35 PM 57.2 °F - 35.6 °F 44% 30.34 in 10.0 mi SW 4.6 mph - N/A   Clear
3:55 PM 55.4 °F - 35.6 °F 47% 30.36 in 10.0 mi SW 3.5 mph - N/A   Clear
4:15 PM 53.6 °F - 35.6 °F 51% 30.36 in 10.0 mi SSW 3.5 mph - N/A   Clear
4:35 PM 51.8 °F - 35.6 °F 54% 30.37 in 10.0 mi SW 3.5 mph - N/A   Clear
4:55 PM 48.2 °F - 37.4 °F 66% 30.37 in 10.0 mi SSW 3.5 mph - N/A   Clear
5:35 PM 42.8 °F - 35.6 °F 76% 30.38 in 10.0 mi Calm Calm - N/A   Clear
5:55 PM 42.8 °F 41.1 °F 35.6 °F 76% 30.39 in 10.0 mi South 3.5 mph - N/A   Clear
6:15 PM 44.6 °F 42.2 °F 35.6 °F 71% 30.39 in 10.0 mi South 4.6 mph - N/A   Clear
6:35 PM 44.6 °F - 37.4 °F 76% 30.41 in 10.0 mi Calm Calm - N/A   Clear
6:55 PM 42.8 °F - 35.6 °F 76% 30.42 in 10.0 mi Calm Calm - N/A   Clear
7:15 PM 39.2 °F - 35.6 °F 87% 30.43 in 10.0 mi Calm Calm - N/A   Clear
7:35 PM 39.2 °F - 35.6 °F 87% 30.43 in 10.0 mi Calm Calm - N/A   Clear
7:55 PM 39.2 °F - 35.6 °F 87% 30.44 in 10.0 mi Calm Calm - N/A   Clear
8:15 PM 39.2 °F - 35.6 °F 87% 30.44 in 10.0 mi Calm Calm - N/A   Clear
8:35 PM 37.4 °F - 35.6 °F 93% 30.45 in 10.0 mi Calm Calm - N/A   Clear
8:55 PM 37.4 °F - 35.6 °F 93% 30.46 in 10.0 mi Calm Calm - N/A   Clear
9:15 PM 37.4 °F - 35.6 °F 93% 30.46 in 10.0 mi Calm Calm - N/A   Clear
9:35 PM 37.4 °F 34.9 °F 33.8 °F 87% 30.47 in 10.0 mi NNW 3.5 mph - N/A   Clear
9:55 PM 35.6 °F 32.8 °F 33.8 °F 93% 30.48 in 10.0 mi NNW 3.5 mph - N/A   Clear
10:15 PM 35.6 °F 31.7 °F 33.8 °F 93% 30.49 in 10.0 mi NNW 4.6 mph - N/A   Clear
10:35 PM 35.6 °F 30.7 °F 33.8 °F 93% 30.49 in 10.0 mi North 5.8 mph - N/A   Clear
10:55 PM 39.2 °F 33.6 °F 37.4 °F 93% 30.50 in 10.0 mi North 8.1 mph - N/A   Clear
11:15 PM 44.6 °F 40.2 °F 37.4 °F 76% 30.50 in 10.0 mi NNE 8.1 mph - N/A   Clear
11:35 PM 44.6 °F 40.2 °F 35.6 °F 71% 30.51 in 10.0 mi NNE 8.1 mph - N/A   Clear
11:55 PM 42.8 °F 39.3 °F 35.6 °F 76% 30.51 in 10.0 mi NNE 5.8 mph - N/A   Clear